User: anonymous   Login
Location: Platte
(43.3870°N, 98.8440°W)
Time: 08:32:29
(UTC-06:00)
Language:

Landsat 7 - Orbit

View from above orbital plane
View from above orbital plane
View from above satellite
View from above satellite

Ground track
Ground track

The orbit data is extracted from the following two-line orbital elements,

1 25682U 99020A   16340.06564989  .00000173  00000-0  48459-4 0  9999
2 25682  98.1956  47.9867 0000487  76.7118 283.4141 14.57116549938324
Epoch (UTC): 05 December 2016 01:34:32
Eccentricity: 0.0000487
inclination: 98.1956°
perigee height: 702 km
apogee height: 703 km
right ascension of ascending node: 47.9867°
argument of perigee: 76.7118°
revolutions per day: 14.57116549
mean anomaly at epoch: 283.4141°
orbit number at epoch: 93832

The dashed part of the orbit path shows where the satellite is in the earth's shadow,  

DLR